JCSAT-16

Last updated on Sun Apr 12 2026 00:02:54 GMT+0000 (Coordinated Universal Time)

1 41729U 16050A 26101.40657654 -.00000249 00000+0 00000+0 0 9996 2 41729 0.0092 222.9150 0001151 182.7403 84.2908 1.00271442 35404
UTC large
Height (km)
Speed (km/s)
/
Latitude / Longitude
Inclination (degrees)
Orbital Period (minutes)
Azimuth
Elevation
Range (km)
Doppler Factor

Next 0 passes for location: London (51.5072 / 0.1276)

Sorry there are no passes over London.
JCSAT-16